OE5XCL Weather Reports


time (UTC)temp
F
wind
direction
speed
knots
gust
knots
rain 1hr
in
rain 24hr
in
rain mn
in
humidity
%
barometer
mb
20260906010033 0 264 0.0 0.0 0.00 0.09 0.00 1024.6
20260906004529 0 264 0.0 0.9 0.00 0.09 0.00 1024.6
20260906003024 0 264 0.0 1.7 0.00 0.09 0.00 1024.4
20260906001518 0 264 0.0 0.9 0.00 0.09 0.00 1024.3
20260906000015 0 264 0.0 1.7 0.00 0.09 0.00 1024.3
20260905234609 0 264 0.0 3.5 0.00 0.09 0.00 1024.3
20260905233006 0 264 0.0 2.6 0.00 0.09 0.00 1024.2
20260905231501 0 264 0.0 3.5 0.00 0.09 0.00 1024.2
20260905230100 0 264 0.0 6.1 0.00 0.09 0.00 1024.0
20260905224552 0 265 0.0 1.7 0.00 0.09 0.00 1023.8
20260905223048 0 265 0.0 1.7 0.00 0.09 0.00 1023.6
20260905221559 0 265 0.0 0.9 0.00 0.09 0.00 1023.5
20260905220041 0 265 0.0 0.0 0.01 0.09 0.00 1023.4
20260905214535 0 265 0.0 0.9 0.01 0.09 0.09 1023.3
20260905213030 0 265 0.0 0.9 0.01 0.09 0.09 1023.1
20260905211525 0 265 0.0 0.0 0.00 0.08 0.08 1022.9
20260905210021 0 265 0.0 0.0 0.00 0.08 0.08 1022.8
20260905204518 0 265 0.0 0.9 0.00 0.08 0.08 1022.7
20260905203013 0 265 0.0 0.0 0.00 0.08 0.08 1022.6
20260905201507 0 265 0.0 0.9 0.00 0.08 0.08 1022.6
20260905200005 0 265 0.9 7.8 0.00 0.08 0.08 1022.5
20260905194600 0 265 0.9 3.5 0.00 0.08 0.08 1022.3
20260905193054 0 266 0.9 9.6 0.00 0.08 0.08 1022.2
20260905191550 0 276 0.0 8.7 0.00 0.08 0.08 1022.0
20260905190052 0 284 2.6 7.8 0.00 0.08 0.08 1022.0
20260905184645 0 261 2.6 8.7 0.00 0.08 0.08 1021.7
20260905183045 0 259 0.0 7.8 0.00 0.08 0.08 1021.6
20260905181544 0 257 3.5 13.0 0.00 0.08 0.08 1021.4
20260905180100 0 261 3.5 12.2 0.00 0.08 0.08 1021.3
20260905174542 0 263 2.6 8.7 0.00 0.08 0.08 1021.0
20260905173103 0 250 2.6 10.4 0.00 0.08 0.08 1020.8
20260905171552 0 277 4.3 13.0 0.00 0.08 0.08 1020.8
20260905170044 0 246 3.5 10.4 0.00 0.08 0.08 1020.8
20260905164544 0 267 2.6 9.6 0.00 0.08 0.08 1020.7
20260905163040 0 261 4.3 15.6 0.00 0.08 0.08 1020.7
20260905161541 0 246 4.3 12.2 0.00 0.08 0.08 1020.6
20260905160052 0 280 7.0 13.0 0.00 0.08 0.08 1020.6
20260905154548 0 273 6.1 20.9 0.00 0.08 0.08 1020.6
20260905153037 0 272 7.0 16.5 0.00 0.08 0.08 1020.6
20260905151536 0 269 6.1 15.6 0.00 0.08 0.08 1020.6
20260905150040 0 259 7.0 13.9 0.00 0.08 0.08 1020.5
20260905144535 0 267 10.4 16.5 0.00 0.08 0.08 1020.4
20260905143035 0 282 4.3 13.0 0.00 0.08 0.08 1020.5
20260905141534 0 280 7.8 12.2 0.01 0.08 0.08 1020.7
20260905140033 0 286 11.3 16.5 0.01 0.08 0.08 1020.9
20260905134533 0 279 6.1 13.9 0.01 0.08 0.08 1020.7
20260905133031 0 302 7.0 13.9 0.01 0.08 0.08 1020.7
20260905131532 0 292 7.0 13.0 0.00 0.07 0.07 1020.7
20260905130030 0 283 7.8 15.6 0.00 0.07 0.07 1020.8
20260905124530 0 264 7.0 16.5 0.00 0.07 0.07 1021.0
20260905123030 0 281 7.0 13.9 0.00 0.07 0.07 1021.1
20260905121529 0 283 7.8 13.9 0.00 0.07 0.07 1021.3
20260905120042 0 265 8.7 13.9 0.00 0.07 0.07 1021.4
20260905114528 0 309 7.0 14.8 0.00 0.07 0.07 1021.4
20260905113030 0 269 7.8 17.4 0.00 0.07 0.07 1021.3
20260905111549 0 299 5.2 11.3 0.00 0.07 0.07 1021.4
20260905110026 0 317 4.3 11.3 0.00 0.07 0.07 1021.4
20260905104525 0 319 4.3 11.3 0.00 0.07 0.07 1021.2
20260905103029 0 292 4.3 8.7 0.00 0.07 0.07 1021.4
20260905101524 0 288 5.2 11.3 0.01 0.07 0.07 1021.5
20260905100020 0 293 3.5 8.7 0.01 0.07 0.07 1021.5
20260905094516 0 291 1.7 7.8 0.01 0.07 0.07 1021.6
20260905093011 0 277 2.6 7.0 0.02 0.07 0.07 1021.7
20260905091506 0 268 1.7 6.1 0.01 0.06 0.06 1021.6
20260905090001 0 258 2.6 7.8 0.02 0.06 0.06 1021.6
20260905084601 0 244 1.7 4.3 0.02 0.06 0.06 1021.6
20260905083153 0 260 1.7 3.5 0.01 0.06 0.06 1021.9
20260905081548 0 260 0.0 5.2 0.02 0.06 0.06 1021.7
20260905080044 0 221 0.9 6.1 0.02 0.05 0.05 1021.5
20260905074540 0 219 1.7 6.1 0.02 0.05 0.05 1021.5
20260905073038 0 217 2.6 9.6 0.02 0.04 0.04 1021.4
20260905071537 0 250 0.0 7.8 0.02 0.04 0.04 1021.3
20260905070045 0 265 0.9 11.3 0.02 0.03 0.03 1021.4
20260905064537 0 275 0.0 2.6 0.03 0.03 0.03 1020.8
20260905063018 0 277 0.9 6.1 0.02 0.02 0.02 1021.1
20260905061513 0 301 0.9 8.7 0.02 0.02 0.02 1021.0
20260905060009 0 308 2.6 9.6 0.01 0.01 0.01 1020.7
20260905054508 0 329 3.5 9.6 0.00 0.00 0.00 1019.6
20260905053102 0 323 0.0 1.7 0.00 0.00 0.00 1018.9
20260905051555 0 350 1.7 9.6 0.00 0.00 0.00 1018.3
20260905050056 0 330 7.0 16.5 0.00 0.00 0.00 1018.4
20260905044546 0 306 5.2 11.3 0.00 0.01 0.00 1017.2
20260905043042 0 324 9.6 21.7 0.00 0.01 0.00 1016.8
20260905041537 0 302 11.3 19.1 0.00 0.01 0.00 1016.5
20260905040035 0 302 5.2 11.3 0.00 0.01 0.00 1015.8
20260905034531 0 260 0.0 6.1 0.00 0.01 0.00 1015.2
20260905033027 0 261 0.9 6.1 0.00 0.01 0.00 1015.2
20260905031520 0 269 0.0 5.2 0.00 0.01 0.00 1015.2
20260905030016 0 269 0.9 7.0 0.00 0.01 0.00 1015.0
20260905024511 0 267 2.6 8.7 0.00 0.01 0.00 1014.9
20260905023006 0 266 1.7 7.0 0.00 0.01 0.00 1014.8
20260905021502 0 272 1.7 8.7 0.00 0.01 0.00 1014.6
20260905014557 0 279 4.3 10.4 0.00 0.01 0.00 1014.4
20260905013049 0 277 4.3 11.3 0.00 0.01 0.00 1014.4
20260905011545 0 269 4.3 12.2 0.00 0.01 0.00 1014.4